Volver al catálogo

BREEZE-M DEB

LostHEO
NORAD 39331·DEBRIS·🇷🇺 Russia

Lanzado Mar 14, 2008 desde Baikonur Cosmodrome

Loading…

Próximos Pases (próximas 24 horas)

TLE

ObsoletoSource: Space-Track

Época: Oct 22, 2015, 00:29 UTC

1 39331U 08011DJ  15295.02076716  .00000025  00000-0  83052-3 0  9998
2 39331  48.7847 218.8898 6477118 182.6866 170.6102  3.16317968 40920

Sigue BREEZE-M DEB en tiempo real con AllMySat

Download on the App Store